Regional Weather Roundup
Issued by NWS Green Bay, WI

Home | Current Version | Previous Version | Text Only | Print | Product List | Glossary On
Versions: 1 2 3 4 5 6 7 8 9 10 11 12 13 14 15 16 17 18 19 20 21 22 23 24 25 26 27 28 29 30 31 32 33 34 35 36 37 38 39 40 41 42 43 44 45 46 47 48 49 50
000
ASUS43 KGRB 291359
RWRGRB

NORTH-CENTRAL AND NORTHEAST WISCONSIN REGIONAL WEATHER ROUNDUP
NATIONAL WEATHER SERVICE GREEN BAY WI
800 AM CST MON DEC 29 2014

WIZ005-009-010>012-018-019-291500-
NORTH CENTRAL WISCONSIN

CITY           SKY/WX    TMP DP  RH WIND       PRES   REMARKS
IRONWOOD       CLOUDY     3   1  92 W8        30.36R WCI -10
MANITOWISH WTR NOT AVBL
ARBOR VITAE    NOT AVBL
EAGLE RIVER    NOT AVBL
LAND O LAKES   NOT AVBL
RHINELANDER    PTCLDY    -8 -12  83 CALM      30.33R
PHILLIPS       NOT AVBL
ANTIGO         NOT AVBL
TOMAHAWK       NOT AVBL
MERRILL        NOT AVBL
$$

WIZ013-073-291500-
NORTHEAST WISCONSIN

CITY           SKY/WX    TMP DP  RH WIND       PRES   REMARKS
IRON MOUNTAIN    N/A     -2  -6  83 NW3       30.32R
MARINETTE      MOCLDY    10   3  72 NW3       30.38R
$$

WIZ017-030-035>037-045-291500-
CENTRAL WISCONSIN

CITY           SKY/WX    TMP DP  RH WIND       PRES   REMARKS
MEDFORD        NOT AVBL
WAUSAU         PTCLDY     2  -3  80 NW6       30.38R WCI  -9
MOSINEE        CLEAR      1   0  92 NW5       30.39R WCI  -8
MARSHFIELD     MOCLDY     2  -3  80 N5        30.39R WCI  -8
WISC RAPIDS    MOCLDY     9   1  70 N8        30.42R WCI  -3
STEVENS POINT  NOT AVBL
WAUPACA        NOT AVBL
SHAWANO        NOT AVBL
CLINTONVILLE   NOT AVBL
$$

WIZ038-039-048-051-291500-
FOX VALLEY

CITY           SKY/WX    TMP DP  RH WIND       PRES   REMARKS
NWS GREEN BAY  MOCLDY    15   7  70 NW7       30.40R WCI   5
APPLETON       MOCLDY    12   7  79 N8        30.38S WCI   1
OSHKOSH        MOCLDY    15   7  70 N7        30.39R WCI   5
FOND DU LAC    MOCLDY    17   7  64 N7        30.39R WCI   8
$$

WIZ022-050-052-291500-
EAST CENTRAL WISCONSIN

CITY           SKY/WX    TMP DP  RH WIND       PRES   REMARKS
STURGEON BAY   MOCLDY    14   7  73 NW15      30.39R WCI  -1
MANITOWOC      NOT AVBL
SHEBOYGAN      PTCLDY    16   8  71 N8        30.39R WCI   5
$$

LMZ563-521-522-541>543-291500-
LAKESHORE

STATION/POSITION TIME  TEMP    WIND        PRES    VSBY  WAVE
                       AIR SEA DIR/SP/G                  HT/PER
                 (UTC) (F)     (DEG/KT/KT) (MB)    (MI)  (FT/S)
SHEBOYGAN LKSHOR 1300   17 35  320/ 10/ 11 1030.2R
KEWAUNEE LKSHORE 1300   15     320/  8/ 12 1027.7R
TWO RIVERS CG    1300   16 36              1029.3   3 1/2  1
NORTHPORT PIER   1300   17     330/ 16/ 21 1027.8R
SISTER BAY LKSHO 1300          340/ 19/ 23   N/A
STURGEON BAY CG  1300   15     320/  5     1028.3      6   0
CHAMBERS ISLAND  1300   14     310/ 13/ 19 1027.8S
MENOMINEE LKSHOR 1300   11     290/  6/ 10 1029.5R
$$



USA.gov is the U.S. government's official web portal to all federal, state and local government web resources and services.